Weather History for Wahoo, NE

Change the Weather History Date:

Saturday, September 29, 2012

  Actual Average Record
Temperature  
Mean Temperature 57 °F -  
Max Temperature 79 °F 74 °F 92 °F (1981)
Min Temperature 36 °F 47 °F 27 °F (1984)
Degree Days  
Heating Degree Days 8    
Growing Degree Days 7 (Base 50)    
Moisture  
Dew Point 37 °F    
Average Humidity 52    
Maximum Humidity 83    
Minimum Humidity 17    
Precipitation  
Precipitation 0.00 in - - ()
Sea Level Pressure  
Sea Level Pressure 30.12 in    
Wind  
Wind Speed 1 mph (SE)    
Max Wind Speed 8 mph    
Max Gust Speed -    
Visibility 10 miles    
Events      
Averages and records for this station are not official NWS values.
T = Trace of Precipitation, MM = Missing Value Source: NWS Daily Summary

Daily Weather History Graph

Daily Weather History Graph

Search for Another Location

Airport:

Trip Planner

Search our weather history database for the weather conditions in past years. The results will help you decide how hot, cold, wet, or windy it might be!

Date:

Astronomy

Sep. 29, 2012 Rise Set
Actual Time 7:21 AM CDT 7:10 PM CDT
Civil Twilight 6:54 AM CDT 7:38 PM CDT
Nautical Twilight 6:21 AM CDT 8:10 PM CDT
Astronomical Twilight 5:49 AM CDT 8:42 PM CDT
Moon 6:43 PM CDT (9/29) 6:54 AM CDT (9/29)
Length of Visible Light 12h 44m
Length of Day
11h 49m
Full, 100% of the Moon is Illuminated
Sep 29
Full
Sep 29
Full
Oct 8
Last Quarter
Oct 15
New
Oct 21
First Quarter

Hourly Weather History & Observations

Time (CDT) Temp. Windchill Dew Point Humidity Pressure Visibility Wind Dir Wind Speed Gust Speed Precip Events Conditions
12:15 AM 43.7 °F - 33.8 °F 68% 30.16 in 10.0 mi Calm Calm - N/A   Clear
12:35 AM 45.0 °F - 34.3 °F 66% 30.16 in 7.0 mi Calm Calm - N/A   Clear
12:55 AM 45.3 °F - 34.2 °F 65% 30.16 in 10.0 mi Calm Calm - N/A   Clear
1:15 AM 44.6 °F - 34.3 °F 67% 30.15 in 10.0 mi Calm Calm - N/A   Clear
1:35 AM 42.3 °F - 34.2 °F 73% 30.15 in 10.0 mi Calm Calm - N/A   Clear
1:55 AM 43.5 °F - 34.7 °F 71% 30.16 in 10.0 mi Calm Calm - N/A   Clear
2:15 AM 41.4 °F - 33.1 °F 72% 30.16 in 10.0 mi Calm Calm - N/A   Clear
2:35 AM 42.8 °F - 34.3 °F 72% 30.16 in 10.0 mi Calm Calm - N/A   Clear
2:55 AM 43.7 °F - 35.4 °F 73% 30.16 in 10.0 mi Calm Calm - N/A   Clear
3:15 AM 42.8 °F - 34.3 °F 72% 30.16 in 10.0 mi Calm Calm - N/A   Clear
3:35 AM 39.9 °F - 32.5 °F 75% 30.16 in 10.0 mi Calm Calm - N/A   Clear
3:55 AM 42.4 °F - 34.9 °F 75% 30.15 in 10.0 mi Calm Calm - N/A   Clear
4:15 AM 42.4 °F - 34.9 °F 75% 30.16 in 10.0 mi Calm Calm - N/A   Clear
4:35 AM 42.8 °F - 35.1 °F 74% 30.16 in 10.0 mi Calm Calm - N/A   Clear
4:55 AM 41.4 °F - 34.3 °F 76% 30.16 in 10.0 mi Calm Calm - N/A   Clear
5:15 AM 37.6 °F - 32.0 °F 80% 30.16 in 10.0 mi Calm Calm - N/A   Clear
5:35 AM 39.2 °F - 33.3 °F 79% 30.16 in 10.0 mi Calm Calm - N/A   Clear
5:55 AM 39.7 °F 36.5 °F 33.4 °F 78% 30.16 in 10.0 mi North 4.6 mph - N/A   Clear
6:15 AM 36.9 °F - 32.2 °F 83% 30.16 in 10.0 mi Calm Calm - N/A   Clear
6:35 AM 38.1 °F 35.7 °F 33.3 °F 83% 30.16 in 10.0 mi NW 3.5 mph - N/A   Clear
6:55 AM 40.1 °F - 34.5 °F 80% 30.16 in 10.0 mi Calm Calm - N/A   Clear
7:15 AM 39.6 °F - 33.6 °F 79% 30.17 in 10.0 mi Calm Calm - N/A   Clear
7:35 AM 40.1 °F - 34.0 °F 79% 30.17 in 10.0 mi Calm Calm - N/A   Clear
7:55 AM 40.5 °F - 34.7 °F 80% 30.18 in 10.0 mi Calm Calm - N/A   Clear
8:15 AM 43.2 °F - 37.0 °F 79% 30.19 in 10.0 mi Calm Calm - N/A   Clear
8:35 AM 46.8 °F - 40.5 °F 79% 30.19 in 10.0 mi Calm Calm - N/A   Clear
8:55 AM 50.0 °F - 41.5 °F 73% 30.19 in 10.0 mi Calm Calm - N/A   Clear
9:15 AM 52.9 °F - 42.6 °F 68% 30.19 in 10.0 mi Calm Calm - N/A   Clear
9:35 AM 55.9 °F - 42.6 °F 61% 30.19 in 10.0 mi Calm Calm - N/A   Clear
9:55 AM 59.0 °F - 43.3 °F 56% 30.19 in 10.0 mi Calm Calm - N/A   Clear
10:15 AM 61.7 °F - 43.7 °F 52% 30.19 in 10.0 mi Calm Calm - N/A   Clear
10:35 AM 64.6 °F - 44.2 °F 48% 30.19 in 10.0 mi Calm Calm - N/A   Clear
10:55 AM 66.7 °F - 44.4 °F 44% 30.18 in 10.0 mi Calm Calm - N/A   Clear
11:15 AM 68.7 °F - 45.1 °F 43% 30.17 in 10.0 mi Calm Calm - N/A   Clear
11:35 AM 70.7 °F - 45.1 °F 40% 30.17 in 10.0 mi Calm Calm - N/A   Clear
11:55 AM 72.3 °F - 43.5 °F 35% 30.16 in 10.0 mi Calm Calm - N/A   Clear
12:15 PM 73.4 °F - 39.0 °F 29% 30.15 in 10.0 mi WNW 4.6 mph - N/A   Clear
12:35 PM 74.1 °F - 40.8 °F 30% 30.15 in 10.0 mi West 3.5 mph - N/A   Clear
12:55 PM 74.5 °F - 39.2 °F 28% 30.13 in 10.0 mi NE 3.5 mph - N/A   Clear
1:15 PM 75.6 °F - 37.9 °F 26% 30.12 in 10.0 mi East 5.8 mph - N/A   Clear
1:35 PM 76.5 °F - 38.7 °F 26% 30.12 in 10.0 mi Calm Calm - N/A   Clear
1:55 PM 76.3 °F - 38.5 °F 26% 30.10 in 10.0 mi SE 5.8 mph - N/A   Clear
2:15 PM 77.7 °F - 36.5 °F 23% 30.09 in 10.0 mi ESE 4.6 mph - N/A   Clear
2:35 PM 77.7 °F - 33.6 °F 20% 30.09 in 10.0 mi SE 4.6 mph - N/A   Clear
2:55 PM 77.9 °F - 37.0 °F 23% 30.08 in 10.0 mi SSE 5.8 mph - N/A   Clear
3:15 PM 78.3 °F - 36.7 °F 22% 30.08 in 10.0 mi ESE 6.9 mph - N/A   Clear
3:35 PM 78.1 °F - 36.3 °F 22% 30.07 in 10.0 mi ESE 4.6 mph - N/A   Clear
3:55 PM 78.6 °F - 32.5 °F 19% 30.06 in 10.0 mi SSE 8.1 mph - N/A   Clear
4:15 PM 78.3 °F - 30.4 °F 17% 30.06 in 10.0 mi East 6.9 mph - N/A   Clear
4:35 PM 78.6 °F - 32.4 °F 19% 30.05 in 10.0 mi SE 4.6 mph - N/A   Clear
4:55 PM 78.4 °F - 34.3 °F 20% 30.05 in 10.0 mi ESE 3.5 mph - N/A   Clear
5:15 PM 78.3 °F - 34.9 °F 21% 30.05 in 10.0 mi South 3.5 mph - N/A   Clear
5:35 PM 77.7 °F - 35.6 °F 22% 30.05 in 10.0 mi Calm Calm - N/A   Clear
5:55 PM 77.5 °F - 36.1 °F 22% 30.05 in 10.0 mi SSE 5.8 mph - N/A   Clear
6:15 PM 76.5 °F - 36.5 °F 24% 30.05 in 10.0 mi SE 4.6 mph - N/A   Clear
6:35 PM 73.6 °F - 37.0 °F 26% 30.05 in 10.0 mi North - - N/A   Clear
6:55 PM 70.9 °F - 37.4 °F 29% 30.05 in 10.0 mi North - - N/A   Clear
7:15 PM 66.4 °F - 37.9 °F 35% 30.05 in 10.0 mi ESE 3.5 mph - N/A   Clear
7:35 PM 64.9 °F - 37.2 °F 36% 30.05 in 10.0 mi ESE 3.5 mph - N/A   Clear
7:55 PM 62.4 °F - 37.4 °F 40% 30.05 in 10.0 mi SE 3.5 mph - N/A   Clear
8:15 PM 63.0 °F - 38.3 °F 40% 30.05 in 10.0 mi Calm Calm - N/A   Clear
8:35 PM 62.4 °F - 38.8 °F 42% 30.06 in 10.0 mi Calm Calm - N/A   Clear
8:55 PM 60.3 °F - 38.5 °F 44% 30.06 in 10.0 mi Calm Calm - N/A   Clear
9:15 PM 61.3 °F - 38.7 °F 43% 30.06 in 10.0 mi Calm Calm - N/A   Clear
9:35 PM 60.3 °F - 39.2 °F 46% 30.07 in 10.0 mi Calm Calm - N/A   Clear
9:55 PM 58.1 °F - 39.4 °F 50% 30.07 in 10.0 mi Calm Calm - N/A   Clear
10:15 PM 55.2 °F - 40.5 °F 58% 30.06 in 10.0 mi Calm Calm - N/A   Clear
10:35 PM 53.1 °F - 39.6 °F 60% 30.06 in 10.0 mi Calm Calm - N/A   Clear
10:55 PM 50.0 °F - 38.7 °F 65% 30.06 in 10.0 mi Calm Calm - N/A   Clear
11:15 PM 53.4 °F - 40.3 °F 61% 30.06 in 10.0 mi Calm Calm - N/A   Clear
11:35 PM 48.2 °F - 37.9 °F 68% 30.06 in 10.0 mi Calm Calm - N/A   Clear
11:55 PM 49.8 °F - 38.1 °F 64% 30.06 in 10.0 mi Calm Calm - N/A   Clear